owner,sensor,date,latitude,longitude,vertical_datum,direction_of_sea_water_velocity,sea_water_speed,upward_sea_water_velocity,qcFlag 
TABS,ioos:station:wmo:42050:1,2017-12-01T00:00:00Z,28.8425,-94.2433,2.0,284.5903865,7.02658523,-99999.0,'11133222,11111222,99999999' 
TABS,ioos:station:wmo:42050:1,2017-12-01T00:30:00Z,28.8425,-94.2433,2.0,276.3027122,10.02055887,-99999.0,'11111222,11111222,99999999' 
TABS,ioos:station:wmo:42050:1,2017-12-01T01:00:00Z,28.8425,-94.2433,2.0,269.6953573,5.650079645,-99999.0,'11133222,11111222,99999999' 
TABS,ioos:station:wmo:42050:1,2017-12-01T01:30:00Z,28.8425,-94.2433,2.0,296.0859597,9.619901247,-99999.0,'11133222,11111222,99999999' 
TABS,ioos:station:wmo:42050:1,2017-12-01T02:00:00Z,28.8425,-94.2433,2.0,290.9542192,5.900186438,-99999.0,'11133222,11111222,99999999' 
TABS,ioos:station:wmo:42050:1,2017-12-01T02:30:00Z,28.8425,-94.2433,2.0,294.1356107,8.755369781,-99999.0,'11133222,11111222,99999999' 
TABS,ioos:station:wmo:42050:1,2017-12-01T03:00:00Z,28.8425,-94.2433,2.0,297.3780597,11.98205742,-99999.0,'11111222,11111222,99999999' 
TABS,ioos:station:wmo:42050:1,2017-12-01T03:30:00Z,28.8425,-94.2433,2.0,298.0985041,9.193530334,-99999.0,'11133222,11111222,99999999' 
TABS,ioos:station:wmo:42050:1,2017-12-01T04:00:00Z,28.8425,-94.2433,2.0,296.4345484,11.7483318,-99999.0,'11111222,11111222,99999999' 
TABS,ioos:station:wmo:42050:1,2017-12-01T04:30:00Z,28.8425,-94.2433,2.0,286.9035425,10.7650778,-99999.0,'11111222,11111222,99999999' 
TABS,ioos:station:wmo:42050:1,2017-12-01T05:00:00Z,28.8425,-94.2433,2.0,296.4144337,10.18308892,-99999.0,'11111222,11111222,99999999' 
TABS,ioos:station:wmo:42050:1,2017-12-01T05:30:00Z,28.8425,-94.2433,2.0,284.570948,9.102757824,-99999.0,'11133222,11111222,99999999' 
TABS,ioos:station:wmo:42050:1,2017-12-01T06:00:00Z,28.8425,-94.2433,2.0,284.2493822,8.491230771,-99999.0,'11133222,11111222,99999999' 
TABS,ioos:station:wmo:42050:1,2017-12-01T06:30:00Z,28.8425,-94.2433,2.0,286.7109785,9.668298713,-99999.0,'11133222,11111222,99999999' 
TABS,ioos:station:wmo:42050:1,2017-12-01T07:00:00Z,28.8425,-94.2433,2.0,256.2367946,5.590509816,-99999.0,'11133222,11111222,99999999' 
TABS,ioos:station:wmo:42050:1,2017-12-01T07:30:00Z,28.8425,-94.2433,2.0,249.6477861,6.239503185,-99999.0,'11133222,11111222,99999999' 
TABS,ioos:station:wmo:42050:1,2017-12-01T08:00:00Z,28.8425,-94.2433,2.0,258.1820462,6.640752969,-99999.0,'11133222,11111222,99999999' 
TABS,ioos:station:wmo:42050:1,2017-12-01T08:30:00Z,28.8425,-94.2433,2.0,261.7101941,7.629711659,-99999.0,'11133222,11111222,99999999' 
TABS,ioos:station:wmo:42050:1,2017-12-01T09:00:00Z,28.8425,-94.2433,2.0,255.8265841,8.127391956,-99999.0,'11133222,11111222,99999999' 
TABS,ioos:station:wmo:42050:1,2017-12-01T09:30:00Z,28.8425,-94.2433,2.0,241.5538103,7.221918028,-99999.0,'11133222,11111222,99999999' 
TABS,ioos:station:wmo:42050:1,2017-12-01T10:00:00Z,28.8425,-94.2433,2.0,245.6312943,15.0508538,-99999.0,'11111222,11111222,99999999' 
TABS,ioos:station:wmo:42050:1,2017-12-01T10:30:00Z,28.8425,-94.2433,2.0,264.9226553,18.9844805,-99999.0,'11111222,11111222,99999999' 
TABS,ioos:station:wmo:42050:1,2017-12-01T11:00:00Z,28.8425,-94.2433,2.0,263.3703483,16.19830238,-99999.0,'11111222,11111222,99999999' 
TABS,ioos:station:wmo:42050:1,2017-12-01T11:30:00Z,28.8425,-94.2433,2.0,257.8841974,17.43840876,-99999.0,'11111222,11111222,99999999' 
TABS,ioos:station:wmo:42050:1,2017-12-01T12:00:00Z,28.8425,-94.2433,2.0,268.5541789,7.532396697,-99999.0,'11133222,11111222,99999999' 
TABS,ioos:station:wmo:42050:1,2017-12-01T12:30:00Z,28.8425,-94.2433,2.0,267.1717498,9.932094442,-99999.0,'11133222,11111222,99999999' 
TABS,ioos:station:wmo:42050:1,2017-12-01T13:00:00Z,28.8425,-94.2433,2.0,282.1086884,14.77878547,-99999.0,'11111222,11111222,99999999' 
TABS,ioos:station:wmo:42050:1,2017-12-01T13:30:00Z,28.8425,-94.2433,2.0,288.0821574,13.33874057,-99999.0,'11111222,11111222,99999999' 
TABS,ioos:station:wmo:42050:1,2017-12-01T14:00:00Z,28.8425,-94.2433,2.0,288.0625907,13.61073106,-99999.0,'11111222,11111222,99999999' 
TABS,ioos:station:wmo:42050:1,2017-12-01T14:30:00Z,28.8425,-94.2433,2.0,305.0704835,13.81881688,-99999.0,'11111222,11111222,99999999' 
TABS,ioos:station:wmo:42050:1,2017-12-01T15:00:00Z,28.8425,-94.2433,2.0,311.9293995,14.65107846,-99999.0,'11111222,11111222,99999999' 
TABS,ioos:station:wmo:42050:1,2017-12-01T15:30:00Z,28.8425,-94.2433,2.0,314.1909457,14.01625485,-99999.0,'11111222,11111222,99999999' 
TABS,ioos:station:wmo:42050:1,2017-12-01T16:00:00Z,28.8425,-94.2433,2.0,324.8317497,15.15668169,-99999.0,'11111222,11111222,99999999' 
TABS,ioos:station:wmo:42050:1,2017-12-01T16:30:00Z,28.8425,-94.2433,2.0,319.3338234,15.25347501,-99999.0,'11111222,11111222,99999999' 
TABS,ioos:station:wmo:42050:1,2017-12-01T17:00:00Z,28.8425,-94.2433,2.0,318.4324163,15.94557305,-99999.0,'11111222,11111222,99999999' 
TABS,ioos:station:wmo:42050:1,2017-12-01T17:30:00Z,28.8425,-94.2433,2.0,317.8904576,14.58495115,-99999.0,'11111222,11111222,99999999' 
TABS,ioos:station:wmo:42050:1,2017-12-01T18:00:00Z,28.8425,-94.2433,2.0,318.5105806,12.24177275,-99999.0,'11111222,11111222,99999999' 
TABS,ioos:station:wmo:42050:1,2017-12-01T18:30:00Z,28.8425,-94.2433,2.0,312.8344381,12.72286917,-99999.0,'11111222,11111222,99999999' 
TABS,ioos:station:wmo:42050:1,2017-12-01T19:00:00Z,28.8425,-94.2433,2.0,310.4930876,12.59717429,-99999.0,'11111222,11111222,99999999' 
TABS,ioos:station:wmo:42050:1,2017-12-01T19:30:00Z,28.8425,-94.2433,2.0,307.1419718,10.96412331,-99999.0,'11111222,11111222,99999999' 
TABS,ioos:station:wmo:42050:1,2017-12-01T20:00:00Z,28.8425,-94.2433,2.0,290.1912432,12.48737362,-99999.0,'11111222,11111222,99999999' 
TABS,ioos:station:wmo:42050:1,2017-12-01T20:30:00Z,28.8425,-94.2433,2.0,288.8570876,11.16946731,-99999.0,'11111222,11111222,99999999' 
TABS,ioos:station:wmo:42050:1,2017-12-01T21:00:00Z,28.8425,-94.2433,2.0,281.7482355,12.57337266,-99999.0,'11111222,11111222,99999999' 
TABS,ioos:station:wmo:42050:1,2017-12-01T21:30:00Z,28.8425,-94.2433,2.0,272.9526172,12.42649186,-99999.0,'11111222,11111222,99999999' 
TABS,ioos:station:wmo:42050:1,2017-12-01T22:00:00Z,28.8425,-94.2433,2.0,272.2657648,10.87850174,-99999.0,'11111222,11111222,99999999' 
TABS,ioos:station:wmo:42050:1,2017-12-01T22:30:00Z,28.8425,-94.2433,2.0,279.3526719,9.41514737,-99999.0,'11133222,11111222,99999999' 
TABS,ioos:station:wmo:42050:1,2017-12-01T23:00:00Z,28.8425,-94.2433,2.0,273.6052824,10.01982535,-99999.0,'11111222,11111222,99999999' 
TABS,ioos:station:wmo:42050:1,2017-12-01T23:30:00Z,28.8425,-94.2433,2.0,279.6250772,5.801663555,-99999.0,'11133222,11111222,99999999' 
TABS,ioos:station:wmo:42050:1,2017-12-02T00:00:00Z,28.8425,-94.2433,2.0,291.8904919,8.395296302,-99999.0,'11133222,11111222,99999999' 
TABS,ioos:station:wmo:42050:1,2017-12-02T00:30:00Z,28.8425,-94.2433,2.0,290.7094101,7.013130542,-99999.0,'11133222,11111222,99999999' 
TABS,ioos:station:wmo:42050:1,2017-12-02T01:00:00Z,28.8425,-94.2433,2.0,284.9570918,4.378333016,-99999.0,'11133222,11111222,99999999' 
TABS,ioos:station:wmo:42050:1,2017-12-02T01:30:00Z,28.8425,-94.2433,2.0,279.6430371,2.089521476,-99999.0,'11133222,11111222,99999999' 
TABS,ioos:station:wmo:42050:1,2017-12-02T02:00:00Z,28.8425,-94.2433,2.0,278.1305043,3.040559159,-99999.0,'11133222,11111222,99999999' 
TABS,ioos:station:wmo:42050:1,2017-12-02T02:30:00Z,28.8425,-94.2433,2.0,291.0889211,4.029900743,-99999.0,'11133222,11111222,99999999' 
TABS,ioos:station:wmo:42050:1,2017-12-02T03:00:00Z,28.8425,-94.2433,2.0,286.2545925,3.822800021,-99999.0,'11133222,11111222,99999999' 
TABS,ioos:station:wmo:42050:1,2017-12-02T03:30:00Z,28.8425,-94.2433,2.0,303.0762003,6.468175941,-99999.0,'11133222,11111222,99999999' 
TABS,ioos:station:wmo:42050:1,2017-12-02T04:00:00Z,28.8425,-94.2433,2.0,297.5432527,4.454896183,-99999.0,'11133222,11111222,99999999' 
TABS,ioos:station:wmo:42050:1,2017-12-02T04:30:00Z,28.8425,-94.2433,2.0,295.9092251,6.247983675,-99999.0,'11133222,11111222,99999999' 
TABS,ioos:station:wmo:42050:1,2017-12-02T05:00:00Z,28.8425,-94.2433,2.0,316.2438753,4.887258945,-99999.0,'11133222,11111222,99999999' 
TABS,ioos:station:wmo:42050:1,2017-12-02T05:30:00Z,28.8425,-94.2433,2.0,329.1334732,5.067790446,-99999.0,'11133222,11111222,99999999' 
TABS,ioos:station:wmo:42050:1,2017-12-02T06:00:00Z,28.8425,-94.2433,2.0,318.1419045,5.290037807,-99999.0,'11133222,11111222,99999999' 
TABS,ioos:station:wmo:42050:1,2017-12-02T06:30:00Z,28.8425,-94.2433,2.0,281.5689129,3.041792235,-99999.0,'11133222,11111222,99999999' 
TABS,ioos:station:wmo:42050:1,2017-12-02T07:00:00Z,28.8425,-94.2433,2.0,232.252862,6.664780567,-99999.0,'11133222,11111222,99999999' 
TABS,ioos:station:wmo:42050:1,2017-12-02T07:30:00Z,28.8425,-94.2433,2.0,235.9181659,6.495690879,-99999.0,'11133222,11111222,99999999' 
TABS,ioos:station:wmo:42050:1,2017-12-02T08:00:00Z,28.8425,-94.2433,2.0,220.226627,7.138249085,-99999.0,'11133222,11111222,99999999' 
TABS,ioos:station:wmo:42050:1,2017-12-02T08:30:00Z,28.8425,-94.2433,2.0,208.9801635,10.50543669,-99999.0,'11111222,11111222,99999999' 
TABS,ioos:station:wmo:42050:1,2017-12-02T09:00:00Z,28.8425,-94.2433,2.0,217.6696514,11.02907521,-99999.0,'11111222,11111222,99999999' 
TABS,ioos:station:wmo:42050:1,2017-12-02T09:30:00Z,28.8425,-94.2433,2.0,209.0651833,10.25095118,-99999.0,'11111222,11111222,99999999' 
TABS,ioos:station:wmo:42050:1,2017-12-02T10:00:00Z,28.8425,-94.2433,2.0,214.6602036,13.59210433,-99999.0,'11111222,11111222,99999999' 
TABS,ioos:station:wmo:42050:1,2017-12-02T10:30:00Z,28.8425,-94.2433,2.0,210.7365419,9.959000954,-99999.0,'11133222,11111222,99999999' 
TABS,ioos:station:wmo:42050:1,2017-12-02T11:00:00Z,28.8425,-94.2433,2.0,227.1559768,12.77939748,-99999.0,'11111222,11111222,99999999' 
TABS,ioos:station:wmo:42050:1,2017-12-02T11:30:00Z,28.8425,-94.2433,2.0,236.5576219,16.65780298,-99999.0,'11111222,11111222,99999999' 
TABS,ioos:station:wmo:42050:1,2017-12-02T12:00:00Z,28.8425,-94.2433,2.0,236.7679457,6.933974329,-99999.0,'11133222,11111222,99999999' 
TABS,ioos:station:wmo:42050:1,2017-12-02T12:30:00Z,28.8425,-94.2433,2.0,250.5496992,6.426756569,-99999.0,'11133222,11111222,99999999' 
TABS,ioos:station:wmo:42050:1,2017-12-02T13:00:00Z,28.8425,-94.2433,2.0,248.037836,13.93091885,-99999.0,'11111222,11111222,99999999' 
TABS,ioos:station:wmo:42050:1,2017-12-02T13:30:00Z,28.8425,-94.2433,2.0,272.6929085,11.28245541,-99999.0,'11111222,11111222,99999999' 
TABS,ioos:station:wmo:42050:1,2017-12-02T14:00:00Z,28.8425,-94.2433,2.0,278.4928634,9.615430308,-99999.0,'11133222,11111222,99999999' 
TABS,ioos:station:wmo:42050:1,2017-12-02T14:30:00Z,28.8425,-94.2433,2.0,285.9695734,9.922927995,-99999.0,'11133222,11111222,99999999' 
TABS,ioos:station:wmo:42050:1,2017-12-02T15:00:00Z,28.8425,-94.2433,2.0,307.6881779,9.666985052,-99999.0,'11133222,11111222,99999999' 
TABS,ioos:station:wmo:42050:1,2017-12-02T15:30:00Z,28.8425,-94.2433,2.0,319.5303365,9.937610377,-99999.0,'11133222,11111222,99999999' 
TABS,ioos:station:wmo:42050:1,2017-12-02T16:00:00Z,28.8425,-94.2433,2.0,331.5189815,12.03677698,-99999.0,'11111222,11111222,99999999' 
TABS,ioos:station:wmo:42050:1,2017-12-02T16:30:00Z,28.8425,-94.2433,2.0,335.3934722,11.64777232,-99999.0,'11111222,11111222,99999999' 
TABS,ioos:station:wmo:42050:1,2017-12-02T17:00:00Z,28.8425,-94.2433,2.0,338.198852,15.13231311,-99999.0,'11111222,11111222,99999999' 
TABS,ioos:station:wmo:42050:1,2017-12-02T17:30:00Z,28.8425,-94.2433,2.0,350.209685,14.34897906,-99999.0,'11111222,11111222,99999999' 
TABS,ioos:station:wmo:42050:1,2017-12-02T18:00:00Z,28.8425,-94.2433,2.0,348.924929,9.578392349,-99999.0,'11133222,11111222,99999999' 
TABS,ioos:station:wmo:42050:1,2017-12-02T18:30:00Z,28.8425,-94.2433,2.0,341.3596046,11.4506812,-99999.0,'11111222,11111222,99999999' 
TABS,ioos:station:wmo:42050:1,2017-12-02T19:00:00Z,28.8425,-94.2433,2.0,341.4167746,9.75882165,-99999.0,'11133222,11111222,99999999' 
TABS,ioos:station:wmo:42050:1,2017-12-02T19:30:00Z,28.8425,-94.2433,2.0,327.1009107,9.647155021,-99999.0,'11133222,11111222,99999999' 
TABS,ioos:station:wmo:42050:1,2017-12-02T20:00:00Z,28.8425,-94.2433,2.0,320.4426014,9.766744596,-99999.0,'11133222,11111222,99999999' 
TABS,ioos:station:wmo:42050:1,2017-12-02T20:30:00Z,28.8425,-94.2433,2.0,311.9228675,9.219826463,-99999.0,'11133222,11111222,99999999' 
TABS,ioos:station:wmo:42050:1,2017-12-02T21:00:00Z,28.8425,-94.2433,2.0,304.3714111,10.734207,-99999.0,'11111222,11111222,99999999' 
TABS,ioos:station:wmo:42050:1,2017-12-02T21:30:00Z,28.8425,-94.2433,2.0,301.8192004,9.767932227,-99999.0,'11133222,11111222,99999999' 
TABS,ioos:station:wmo:42050:1,2017-12-02T22:00:00Z,28.8425,-94.2433,2.0,286.1464001,8.630417139,-99999.0,'11133222,11111222,99999999' 
TABS,ioos:station:wmo:42050:1,2017-12-02T22:30:00Z,28.8425,-94.2433,2.0,276.9533621,7.021637986,-99999.0,'11133222,11111222,99999999' 
TABS,ioos:station:wmo:42050:1,2017-12-02T23:00:00Z,28.8425,-94.2433,2.0,267.2821851,6.116878289,-99999.0,'11133222,11111222,99999999' 
TABS,ioos:station:wmo:42050:1,2017-12-02T23:30:00Z,28.8425,-94.2433,2.0,243.060114,4.105508495,-99999.0,'11133222,11111222,99999999' 
TABS,ioos:station:wmo:42050:1,2017-12-03T00:00:00Z,28.8425,-94.2433,2.0,282.4539094,4.127105523,-99999.0,'11133222,11111222,99999999' 
TABS,ioos:station:wmo:42050:1,2017-12-03T00:30:00Z,28.8425,-94.2433,2.0,246.6655924,3.332566578,-99999.0,'11133222,11111222,99999999' 
TABS,ioos:station:wmo:42050:1,2017-12-03T01:00:00Z,28.8425,-94.2433,2.0,262.3451192,4.429469494,-99999.0,'11133222,11111222,99999999' 
TABS,ioos:station:wmo:42050:1,2017-12-03T01:30:00Z,28.8425,-94.2433,2.0,271.5697721,4.381643527,-99999.0,'11133222,11111222,99999999' 
TABS,ioos:station:wmo:42050:1,2017-12-03T02:00:00Z,28.8425,-94.2433,2.0,5.19462722,1.325443322,-99999.0,'11133222,11111222,99999999' 
TABS,ioos:station:wmo:42050:1,2017-12-03T02:30:00Z,28.8425,-94.2433,2.0,257.3470522,3.013171087,-99999.0,'11133222,11111222,99999999' 
TABS,ioos:station:wmo:42050:1,2017-12-03T03:00:00Z,28.8425,-94.2433,2.0,272.8425522,2.823473039,-99999.0,'11133222,11111222,99999999' 
TABS,ioos:station:wmo:42050:1,2017-12-03T03:30:00Z,28.8425,-94.2433,2.0,334.1926918,3.721142298,-99999.0,'11133222,11111222,99999999' 
TABS,ioos:station:wmo:42050:1,2017-12-03T04:00:00Z,28.8425,-94.2433,2.0,335.6008316,3.1953873,-99999.0,'11133222,11111222,99999999' 
TABS,ioos:station:wmo:42050:1,2017-12-03T04:30:00Z,28.8425,-94.2433,2.0,301.6401285,2.325682695,-99999.0,'11133222,11111222,99999999' 
TABS,ioos:station:wmo:42050:1,2017-12-03T05:00:00Z,28.8425,-94.2433,2.0,329.6835011,4.100792606,-99999.0,'11133222,11111222,99999999' 
TABS,ioos:station:wmo:42050:1,2017-12-03T05:30:00Z,28.8425,-94.2433,2.0,282.3154106,4.360332556,-99999.0,'11133222,11111222,99999999' 
TABS,ioos:station:wmo:42050:1,2017-12-03T06:00:00Z,28.8425,-94.2433,2.0,312.2364648,3.079496712,-99999.0,'11133222,11111222,99999999' 
TABS,ioos:station:wmo:42050:1,2017-12-03T06:30:00Z,28.8425,-94.2433,2.0,270.5478149,3.140143309,-99999.0,'11133222,11111222,99999999' 
TABS,ioos:station:wmo:42050:1,2017-12-03T07:00:00Z,28.8425,-94.2433,2.0,259.5479706,1.047377678,-99999.0,'11133222,11111222,99999999' 
TABS,ioos:station:wmo:42050:1,2017-12-03T07:30:00Z,28.8425,-94.2433,2.0,245.1359407,4.970734352,-99999.0,'11133222,11111222,99999999' 
TABS,ioos:station:wmo:42050:1,2017-12-03T08:30:00Z,28.8425,-94.2433,2.0,218.9556063,7.252806353,-99999.0,'11133222,11111222,99999999' 
TABS,ioos:station:wmo:42050:1,2017-12-03T09:00:00Z,28.8425,-94.2433,2.0,221.4997234,9.266239798,-99999.0,'11133222,11111222,99999999' 
TABS,ioos:station:wmo:42050:1,2017-12-03T09:30:00Z,28.8425,-94.2433,2.0,228.7641553,11.95468527,-99999.0,'11111222,11111222,99999999' 
TABS,ioos:station:wmo:42050:1,2017-12-03T10:00:00Z,28.8425,-94.2433,2.0,223.8879221,12.39084339,-99999.0,'11111222,11111222,99999999' 
TABS,ioos:station:wmo:42050:1,2017-12-03T10:30:00Z,28.8425,-94.2433,2.0,229.6298908,16.64304059,-99999.0,'11111222,11111222,99999999' 
TABS,ioos:station:wmo:42050:1,2017-12-03T11:00:00Z,28.8425,-94.2433,2.0,233.9636952,14.70355739,-99999.0,'11111222,11111222,99999999' 
TABS,ioos:station:wmo:42050:1,2017-12-03T11:30:00Z,28.8425,-94.2433,2.0,233.3361517,14.43609365,-99999.0,'11111222,11111222,99999999' 
TABS,ioos:station:wmo:42050:1,2017-12-03T12:00:00Z,28.8425,-94.2433,2.0,239.2577243,12.40287064,-99999.0,'11111222,11111222,99999999' 
TABS,ioos:station:wmo:42050:1,2017-12-03T12:30:00Z,28.8425,-94.2433,2.0,236.5918326,6.756330365,-99999.0,'11133222,11111222,99999999' 
TABS,ioos:station:wmo:42050:1,2017-12-03T13:00:00Z,28.8425,-94.2433,2.0,256.4192923,15.54460035,-99999.0,'11111222,11111222,99999999' 
TABS,ioos:station:wmo:42050:1,2017-12-03T13:30:00Z,28.8425,-94.2433,2.0,266.6881301,18.35064032,-99999.0,'11111222,11111222,99999999' 
TABS,ioos:station:wmo:42050:1,2017-12-03T14:00:00Z,28.8425,-94.2433,2.0,273.011482,17.51417997,-99999.0,'11111222,11111222,99999999' 
TABS,ioos:station:wmo:42050:1,2017-12-03T14:30:00Z,28.8425,-94.2433,2.0,279.6082889,16.17691256,-99999.0,'11111222,11111222,99999999' 
TABS,ioos:station:wmo:42050:1,2017-12-03T15:00:00Z,28.8425,-94.2433,2.0,290.3610804,18.53825504,-99999.0,'11111222,11111222,99999999' 
TABS,ioos:station:wmo:42050:1,2017-12-03T15:30:00Z,28.8425,-94.2433,2.0,293.7799816,25.76758623,-99999.0,'11111222,11111222,99999999' 
TABS,ioos:station:wmo:42050:1,2017-12-03T16:00:00Z,28.8425,-94.2433,2.0,295.6114541,24.1752456,-99999.0,'11111222,11111222,99999999' 
TABS,ioos:station:wmo:42050:1,2017-12-03T16:30:00Z,28.8425,-94.2433,2.0,293.7903031,26.97177784,-99999.0,'11111222,11111222,99999999' 
TABS,ioos:station:wmo:42050:1,2017-12-03T17:00:00Z,28.8425,-94.2433,2.0,294.2130613,26.0408314,-99999.0,'11111222,11111222,99999999' 
TABS,ioos:station:wmo:42050:1,2017-12-03T17:30:00Z,28.8425,-94.2433,2.0,292.9158934,34.2858411,-99999.0,'11111222,11111222,99999999' 
TABS,ioos:station:wmo:42050:1,2017-12-03T18:00:00Z,28.8425,-94.2433,2.0,296.9665559,37.04808227,-99999.0,'11111222,11111222,99999999' 
TABS,ioos:station:wmo:42050:1,2017-12-03T18:30:00Z,28.8425,-94.2433,2.0,297.6682674,34.15555738,-99999.0,'11111222,11111222,99999999' 
TABS,ioos:station:wmo:42050:1,2017-12-03T19:00:00Z,28.8425,-94.2433,2.0,304.9612426,24.13539517,-99999.0,'11111222,11111222,99999999' 
TABS,ioos:station:wmo:42050:1,2017-12-03T19:30:00Z,28.8425,-94.2433,2.0,330.3532563,18.88183519,-99999.0,'11111222,11111222,99999999' 
TABS,ioos:station:wmo:42050:1,2017-12-03T20:00:00Z,28.8425,-94.2433,2.0,349.3164953,18.12417446,-99999.0,'11111222,11111222,99999999' 
TABS,ioos:station:wmo:42050:1,2017-12-03T20:30:00Z,28.8425,-94.2433,2.0,0.520120376,16.53068057,-99999.0,'11111222,11111222,99999999' 
TABS,ioos:station:wmo:42050:1,2017-12-03T21:00:00Z,28.8425,-94.2433,2.0,3.826744417,15.28407341,-99999.0,'11111222,11111222,99999999' 
TABS,ioos:station:wmo:42050:1,2017-12-03T21:30:00Z,28.8425,-94.2433,2.0,6.814547413,12.8104957,-99999.0,'11111222,11111222,99999999' 
TABS,ioos:station:wmo:42050:1,2017-12-03T22:00:00Z,28.8425,-94.2433,2.0,18.00744171,13.13330499,-99999.0,'11111222,11111222,99999999' 
TABS,ioos:station:wmo:42050:1,2017-12-03T22:30:00Z,28.8425,-94.2433,2.0,30.76805,9.031168252,-99999.0,'11133222,11111222,99999999' 
TABS,ioos:station:wmo:42050:1,2017-12-03T23:00:00Z,28.8425,-94.2433,2.0,32.0630908,5.274552114,-99999.0,'11133222,11111222,99999999' 
TABS,ioos:station:wmo:42050:1,2017-12-03T23:30:00Z,28.8425,-94.2433,2.0,108.3084255,1.43251527,-99999.0,'11133222,11111222,99999999' 
TABS,ioos:station:wmo:42050:1,2017-12-04T00:00:00Z,28.8425,-94.2433,2.0,133.9323976,3.415918617,-99999.0,'11133222,11111222,99999999' 
TABS,ioos:station:wmo:42050:1,2017-12-04T00:30:00Z,28.8425,-94.2433,2.0,212.3871404,5.24604613,-99999.0,'11133222,11111222,99999999' 
TABS,ioos:station:wmo:42050:1,2017-12-04T01:00:00Z,28.8425,-94.2433,2.0,226.3016339,5.601731875,-99999.0,'11133222,11111222,99999999' 
TABS,ioos:station:wmo:42050:1,2017-12-04T01:30:00Z,28.8425,-94.2433,2.0,234.2347395,6.741253593,-99999.0,'11133222,11111222,99999999' 
TABS,ioos:station:wmo:42050:1,2017-12-04T02:00:00Z,28.8425,-94.2433,2.0,233.3490101,7.840057398,-99999.0,'11133222,11111222,99999999' 
TABS,ioos:station:wmo:42050:1,2017-12-04T02:30:00Z,28.8425,-94.2433,2.0,256.00729,12.65551263,-99999.0,'11111222,11111222,99999999' 
TABS,ioos:station:wmo:42050:1,2017-12-04T03:00:00Z,28.8425,-94.2433,2.0,253.5136444,11.0648859,-99999.0,'11111222,11111222,99999999' 
TABS,ioos:station:wmo:42050:1,2017-12-04T03:30:00Z,28.8425,-94.2433,2.0,265.6120899,27.45044444,-99999.0,'11111222,11111222,99999999' 
TABS,ioos:station:wmo:42050:1,2017-12-04T04:00:00Z,28.8425,-94.2433,2.0,269.5586735,24.69073105,-99999.0,'11111222,11111222,99999999' 
TABS,ioos:station:wmo:42050:1,2017-12-04T04:30:00Z,28.8425,-94.2433,2.0,270.8872796,25.84309579,-99999.0,'11111222,11111222,99999999' 
TABS,ioos:station:wmo:42050:1,2017-12-04T05:00:00Z,28.8425,-94.2433,2.0,267.5047474,18.8378555,-99999.0,'11111222,11111222,99999999' 
TABS,ioos:station:wmo:42050:1,2017-12-04T05:30:00Z,28.8425,-94.2433,2.0,270.7944885,14.43138593,-99999.0,'11111222,11111222,99999999' 
TABS,ioos:station:wmo:42050:1,2017-12-04T06:00:00Z,28.8425,-94.2433,2.0,270.2847642,12.09014888,-99999.0,'11111222,11111222,99999999' 
TABS,ioos:station:wmo:42050:1,2017-12-04T06:30:00Z,28.8425,-94.2433,2.0,273.029476,16.65326695,-99999.0,'11111222,11111222,99999999' 
TABS,ioos:station:wmo:42050:1,2017-12-04T07:00:00Z,28.8425,-94.2433,2.0,280.9257982,18.99427545,-99999.0,'11111222,11111222,99999999' 
TABS,ioos:station:wmo:42050:1,2017-12-04T07:30:00Z,28.8425,-94.2433,2.0,278.3367915,23.17486785,-99999.0,'11111222,11111222,99999999' 
TABS,ioos:station:wmo:42050:1,2017-12-04T08:00:00Z,28.8425,-94.2433,2.0,272.531178,18.11767093,-99999.0,'11111222,11111222,99999999' 
TABS,ioos:station:wmo:42050:1,2017-12-04T08:30:00Z,28.8425,-94.2433,2.0,278.0003857,24.28635213,-99999.0,'11111222,11111222,99999999' 
TABS,ioos:station:wmo:42050:1,2017-12-04T09:00:00Z,28.8425,-94.2433,2.0,275.4972033,24.53281272,-99999.0,'11111222,11111222,99999999' 
TABS,ioos:station:wmo:42050:1,2017-12-04T09:30:00Z,28.8425,-94.2433,2.0,270.5240528,13.13054835,-99999.0,'11111222,11111222,99999999' 
TABS,ioos:station:wmo:42050:1,2017-12-04T10:00:00Z,28.8425,-94.2433,2.0,271.9178996,13.74769799,-99999.0,'11111222,11111222,99999999' 
TABS,ioos:station:wmo:42050:1,2017-12-04T10:30:00Z,28.8425,-94.2433,2.0,263.6381579,11.91335385,-99999.0,'11111222,11111222,99999999' 
TABS,ioos:station:wmo:42050:1,2017-12-04T11:00:00Z,28.8425,-94.2433,2.0,256.6194895,17.15566962,-99999.0,'11111222,11111222,99999999' 
TABS,ioos:station:wmo:42050:1,2017-12-04T11:30:00Z,28.8425,-94.2433,2.0,255.2969316,13.55380758,-99999.0,'11111222,11111222,99999999' 
TABS,ioos:station:wmo:42050:1,2017-12-04T12:00:00Z,28.8425,-94.2433,2.0,255.2452869,10.83734285,-99999.0,'11111222,11111222,99999999' 
TABS,ioos:station:wmo:42050:1,2017-12-04T12:30:00Z,28.8425,-94.2433,2.0,262.4804511,16.04799364,-99999.0,'11111222,11111222,99999999' 
TABS,ioos:station:wmo:42050:1,2017-12-04T13:00:00Z,28.8425,-94.2433,2.0,259.4830809,28.32580802,-99999.0,'11111222,11111222,99999999' 
TABS,ioos:station:wmo:42050:1,2017-12-04T13:30:00Z,28.8425,-94.2433,2.0,262.6465408,27.11296738,-99999.0,'11111222,11111222,99999999' 
TABS,ioos:station:wmo:42050:1,2017-12-04T14:00:00Z,28.8425,-94.2433,2.0,262.9360045,25.45318251,-99999.0,'11111222,11111222,99999999' 
TABS,ioos:station:wmo:42050:1,2017-12-04T14:30:00Z,28.8425,-94.2433,2.0,270.5712179,24.09119549,-99999.0,'11111222,11111222,99999999' 
TABS,ioos:station:wmo:42050:1,2017-12-04T15:00:00Z,28.8425,-94.2433,2.0,282.3413454,28.11976173,-99999.0,'11111222,11111222,99999999' 
TABS,ioos:station:wmo:42050:1,2017-12-04T15:30:00Z,28.8425,-94.2433,2.0,290.8973644,25.1759965,-99999.0,'11111222,11111222,99999999' 
TABS,ioos:station:wmo:42050:1,2017-12-04T16:00:00Z,28.8425,-94.2433,2.0,291.8704072,24.80520107,-99999.0,'11111222,11111222,99999999' 
TABS,ioos:station:wmo:42050:1,2017-12-04T16:30:00Z,28.8425,-94.2433,2.0,299.2296176,24.53382359,-99999.0,'11111222,11111222,99999999' 